Location: Unspecified
(0.0000°N, 0.0000°E)
Time: 03:29:10
(UTC+00:00)

USA 184 - Visible Passes

Search period start: 18 February 2018 00:00
Search period end: 28 February 2018 00:00
Orbit: 1821 x 38535 km, 62.8° (Epoch: 14 February)

Date Brightness Start Highest point End Pass type
(mag) Time Alt. Az. Time Alt. Az. Time Alt. Az.
18 Feb 6.5 07:26:17 10° SW 18:31:09 86° ENE 18:52:59 10° SSE visible
19 Feb 6.5 07:21:56 10° SW 18:26:48 86° ENE 18:48:39 10° SSE visible
20 Feb 6.5 07:17:36 10° SW 18:22:28 86° ENE 18:44:18 10° SSE visible
21 Feb 6.5 07:13:15 10° SW 18:18:07 86° ENE 18:39:57 10° SSE visible
